PHOENIX (42706 NORAD) Tracking and Keplerian Element Data

This shows tracking and keplerian element data for the satellite.

Feedback or suggestion? Click here.




ElementValue
Catalog42706
NamePHOENIX
Epoch Orbit6740
Epoch Day203.18227227
Epoch Year2018
RAAN177.946
Inclination51.6338
Eccentricity0.0001603
Argument of Perigee14.7848
Mean Anonmoly345.3196
Mean Motion15.70481993
Decay Rate0.00020892
L11 42706U 98067LP 18203.18227227 .00020892 00000-0 17106-3 0 9993
L22 42706 51.6338 177.9460 0001603 14.7848 345.3196 15.70481993 67408

Live tracking and technical data element details for PHOENIX (NORAD 42706). PHOENIX can be tracked NOW for your location showing map with azimuth and elevation plus other details from your city location.

Track the satellite on the map from your city or location and see movement details for azimuth, elevation, latitude, longitude, range, height, and movement on the map or in text.







IsCatalogInMostPopularTable: catalog: 42706, numindb: 97
Update: records affected: 1



GetName: 42706 PHOENIX

Hit Count: updated at: Mon, 23 Jul 2018 07:41:39 GMT